Regional Weather Roundup
Issued by NWS

Home | Current Version | Previous Version | Graphics & Text | Print | Product List | Glossary On
Versions: 1 2 3 4 5 6 7 8 9 10 11 12 13 14 15 16 17 18 19 20 21 22 23 24 25 26 27 28 29 30 31 32 33 34 35 36 37 38 39 40 41 42 43 44 45 46 47 48 49 50
000
ASUS43 KLOT 280810
RWRIL

ILLINOIS REGIONAL WEATHER ROUNDUP
NATIONAL WEATHER SERVICE CHICAGO/ROMEOVILLE IL
300 AM CDT MON JUL 28 2014

NOTE: "FAIR" INDICATES FEW OR NO CLOUDS BELOW 12,000 FEET WITH NO
SIGNIFICANT WEATHER AND/OR OBSTRUCTIONS TO VISIBILITY.

* THESE STATIONS ARE NOT UNDER NWS QUALITY CONTROL. THEY ALSO MAY NOT
  REPORT WEATHER SUCH AS PRECIPITATION OR FOG.

ILZ001-002-007-009-015-016-024-280900-
NORTHWEST ILLINOIS

CITY           SKY/WX    TMP DP  RH WIND       PRES   REMARKS
MOLINE         MOCLDY    66  59  78 N6        30.02R
STERLING*      CLOUDY    64  57  77 N6        30.01R
SAVANNA*       CLOUDY    65  56  73 N10       30.02R
$$

ILZ003-004-008-010-011-017-018-280900-
NORTH CENTRAL ILLINOIS

CITY           SKY/WX    TMP DP  RH WIND       PRES   REMARKS
ROCKFORD       CLEAR     61  53  75 N12       30.02R
FREEPORT*      CLEAR     56  53  89 N6        30.04R
ROCHELLE*      CLEAR     60  53  77 N8        30.00R
DE KALB*       CLEAR     58  54  87 N8        29.99R
PERU*          PTCLDY    63  59  88 N8        29.99R
$$

ILZ005-006-012>014-019>023-280900-
NORTHEAST ILLINOIS

CITY           SKY/WX    TMP DP  RH WIND       PRES   REMARKS
CHICAGO-OHARE  PTCLDY    63  50  62 N13       29.94R
CHICAGO-MIDWAY PTCLDY    66  51  58 N20G25    29.93R
AURORA         CLEAR     60  52  74 N10       29.97R
LANSING*       CLOUDY    64  51  63 N14G20    29.92S
JOLIET*        CLEAR     64  52  65 N9        29.96R
WAUKEGAN       CLEAR     58  52  80 NW6       29.95R
DUPAGE AIRPORT CLEAR     61  52  72 N12       29.95R
KANKAKEE*      PTCLDY    62  55  79 NW5       29.94R
WHEELING       CLEAR     62  52  69 N8G18     29.95S
MORRIS*        CLEAR     62  55  77 N3        29.96R
ROMEOVILLE*    CLEAR     63  51  66 N13       29.95R
NORTHERLY ISL    N/A     64  52  64 N17         N/A
$$

LMZ740>746-280900-
SOUTHERN LAKE MICHIGAN

STATION/POSITION SKY/WX   TEMP    WIND        PRES    VSBY  WAVE
                          AIR SEA DIR/SP/G                  HT/PER
                          (F)     (DEG/KT/KT) (MB)    (MI)  (FT/S)
SOUTHERN BUOY              60 60  340/ 23/ 27 1012.2R         7/ 7
WAUKEGAN HARBOR            61     330/ 12/ 15   N/A
HARRISON CRIB              64     340/ 29/ 36   N/A
BURNHAM HARBOR             64     350/ 15/ 23   N/A
CALUMET HARBOR             64     340/ 15/ 25 1012.1S
MICHIGAN CITY              63     340/ 29/ 35   N/A
MICHIGAN CITY 6N           64 68  360/ 21/ 29   N/A          11/ 8
ST. JOSEPH                 62 64  350/ 19/ 25   N/A           9/ 8
$$

ILZ025>027-034>036-040-047-049-050-058-095>099-280900-
WEST-CENTRAL ILLINOIS

CITY           SKY/WX    TMP DP  RH WIND       PRES   REMARKS
QUINCY         CLEAR     63  58  83 NW9       30.03R
GALESBURG*     CLEAR     62  60  96 NW8       30.01R
MACOMB*        CLEAR     63  61  94 NW10      30.03S
JACKSONVILLE*  CLEAR     65  61  85 NW7       30.01R
PITTSFIELD*    CLEAR     65  59  79 NW7       30.03S
$$

ILZ028>032-037-038-041>044-048-051>054-059>061-280900-
CENTRAL ILLINOIS

CITY           SKY/WX    TMP DP  RH WIND       PRES   REMARKS
PONTIAC        MOCLDY    64  63  94 NW3       29.96R
DECATUR        CLEAR     65  60  84 NW9       29.96R
PEORIA         CLEAR     65  59  81 NW8       29.98R
LACON*         PTCLDY    63  59  88 N3        29.98R
LINCOLN*       CLEAR     64  60  89 NW3       29.95R
SPRINGFIELD    CLEAR     66  60  81 NW10      29.98R
TAYLORVILLE    CLEAR     61  59  94 W6        29.98R
$$

ILZ033-039-045-046-055>057-062-063-280900-
EAST-CENTRAL ILLINOIS

CITY           SKY/WX    TMP DP  RH WIND       PRES   REMARKS
CHAMPAIGN      PTCLDY    63  60  90 N13       29.94R
DANVILLE*      MOCLDY    62  59  91 N10       29.90R
RANTOUL*       PTCLDY    65  59  82 N13       29.95R
MATTOON        CLEAR     62  59  90 NW13      29.93R
PARIS*         CLEAR     61  59  94 CALM      29.92R
$$

ILZ079-100>102-280900-
SOUTHWEST ILLINOIS

CITY           SKY/WX    TMP DP  RH WIND       PRES   REMARKS
ALTON          CLEAR     67  61  79 NW12      29.99F
BELLEVILLE     CLEAR     68  59  73 W9        29.98S
CAHOKIA*       CLEAR     71  58  63 NW14      30.00R
SPARTA*        CLEAR     66  57  72 NW5       30.00S
$$

ILZ064>066-069>071-074>076-080>082-084>086-088>090-092>094-280900-
SOUTH-CENTRAL ILLINOIS

CITY           SKY/WX    TMP DP  RH WIND       PRES   REMARKS
CARBONDALE     CLEAR     66  58  75 W5        29.98S
CAIRO*         CLEAR     69  59  69 CALM      29.98S
EFFINGHAM*     CLEAR     65  56  73 NW9       29.95S
MARION         CLEAR     68  59  73 W3        29.98S
MT. VERNON     CLEAR     68  55  64 NW5       29.96F
CENTRALIA*     CLEAR     66  57  72 NW9       29.97S
SALEM*         CLEAR    N/A N/A N/A NW6       29.97S
METROPOLIS*    CLEAR     67  56  67 W3        29.98R
$$

ILZ067-068-072-073-078-083-087-091-280900-
SOUTHEAST ILLINOIS

CITY           SKY/WX    TMP DP  RH WIND       PRES   REMARKS
LAWRENCEVILLE  CLEAR     66  60  81 NW12      29.92S
FLORA*         CLEAR     65  58  80 NW7       29.95S
FAIRFIELD*     CLEAR     68  61  77 NW5       29.94S
HARRISBURG*    CLEAR     65  59  80 W5        29.97S
ROBINSON*      CLEAR     65  61  86 W8        29.92S
$$

ABBREVIATIONS USED IN REMARKS
   TC - TEMPERATURE IN CELSIUS
  WCI - WIND CHILL INDEX
   HX - HEAT INDEX
  VSB - VISIBILITY
$$




USA.gov is the U.S. government's official web portal to all federal, state and local government web resources and services.